GW7162 Weather Reports


Display with metric or nautical units.
time (UTC)temp
F
wind
direction
speed
MPH
gust
MPH
rain 1hr
in
rain 24hr
in
rain mn
in
humidity
%
barometer
mb
20260510142321 65 87 2.0 3.0 0.00 0.00 0.00 65 1018.9
20260510141818 65 92 0.0 1.0 0.00 0.00 0.00 66 1018.9
20260510141315 65 104 2.0 3.0 0.00 0.00 0.00 65 1018.9
20260510140813 65 151 0.0 1.0 0.00 0.00 0.00 66 1018.6
20260510140309 65 128 1.0 1.0 0.00 0.00 0.00 67 1018.6
20260510135807 65 137 2.0 2.0 0.00 0.00 0.00 66 1018.5
20260510135306 65 170 1.0 1.0 0.00 0.00 0.00 67 1018.6
20260510134801 64 119 0.0 1.0 0.00 0.00 0.00 67 1018.4
20260510134258 64 103 1.0 2.0 0.00 0.00 0.00 66 1018.2
20260510133754 64 199 2.0 2.0 0.00 0.00 0.00 66 1018.4
20260510133250 64 78 1.0 3.0 0.00 0.00 0.00 67 1018.2
20260510132746 64 185 0.0 1.0 0.00 0.00 0.00 67 1018.0
20260510132244 64 101 0.0 1.0 0.00 0.00 0.00 68 1018.0
20260510131740 64 162 0.0 0.0 0.00 0.00 0.00 69 1017.9
20260510131238 64 44 2.0 3.0 0.00 0.00 0.00 67 1017.8
20260510130734 64 166 0.0 0.0 0.00 0.00 0.00 68 1017.7
20260510130232 64 149 0.0 0.0 0.00 0.00 0.00 69 1017.7
20260510125728 64 87 2.0 4.0 0.00 0.00 0.00 68 1017.6
20260510125224 64 177 0.0 1.0 0.00 0.00 0.00 70 1017.4
20260510124721 63 163 0.0 0.0 0.00 0.00 0.00 70 1017.5
20260510124219 62 134 0.0 0.0 0.00 0.00 0.00 72 1017.3
20260510123713 62 125 1.0 2.0 0.00 0.00 0.00 72 1017.3
20260510123210 62 111 2.0 3.0 0.00 0.00 0.00 73 1017.0
20260510122706 61 163 0.0 1.0 0.00 0.00 0.00 73 1017.2
20260510122203 61 142 1.0 2.0 0.00 0.00 0.00 74 1016.9
20260510121659 61 86 0.0 1.0 0.00 0.00 0.00 75 1016.9
20260510121156 61 111 1.0 2.0 0.00 0.00 0.00 76 1016.9
20260510120653 61 132 0.0 1.0 0.00 0.00 0.00 77 1016.7
20260510120150 60 156 0.0 0.0 0.00 0.00 0.00 78 1016.7
20260510115645 60 160 0.0 0.0 0.00 0.00 0.00 79 1016.4
20260510115144 59 180 0.0 0.0 0.00 0.00 0.00 81 1016.8
20260510114639 59 181 0.0 0.0 0.00 0.00 0.00 80 1016.7
20260510114135 60 172 0.0 0.0 0.00 0.00 0.00 78 1016.4
20260510113631 59 149 0.0 0.0 0.00 0.00 0.00 79 1016.1
20260510113128 58 165 0.0 0.0 0.00 0.00 0.00 81 1016.1
20260510112625 57 173 0.0 0.0 0.00 0.00 0.00 84 1015.9
20260510112121 57 175 0.0 0.0 0.00 0.00 0.00 84 1015.8
20260510111618 57 175 0.0 0.0 0.00 0.00 0.00 83 1015.9
20260510111114 57 171 0.0 0.0 0.00 0.00 0.00 83 1015.8
20260510110610 57 170 0.0 0.0 0.00 0.00 0.00 83 1015.8
20260510110107 57 170 0.0 0.0 0.00 0.00 0.00 84 1015.5
20260510105602 57 170 0.0 0.0 0.00 0.00 0.00 84 1015.6
20260510105057 57 170 0.0 0.0 0.00 0.00 0.00 85 1015.3
20260510104554 57 175 0.0 0.0 0.00 0.00 0.00 87 1015.5
20260510104050 57 173 0.0 0.0 0.00 0.00 0.00 87 1015.4
20260510103547 57 137 0.0 0.0 0.00 0.00 0.00 88 1015.6
20260510103043 57 170 0.0 0.0 0.00 0.00 0.00 88 1015.5
20260510102539 56 171 0.0 0.0 0.00 0.00 0.00 88 1015.5
20260510102035 57 171 0.0 0.0 0.00 0.00 0.00 88 1015.7
20260510101533 56 171 0.0 0.0 0.00 0.00 0.00 88 1015.5
20260510101032 56 171 0.0 0.0 0.00 0.00 0.00 88 1015.2
20260510100527 57 171 0.0 0.0 0.00 0.00 0.00 88 1015.2
20260510100024 57 171 0.0 0.0 0.00 0.00 0.00 88 1015.2
20260510095520 57 171 0.0 0.0 0.00 0.00 0.00 88 1015.1
20260510095019 57 171 0.0 0.0 0.00 0.00 0.00 87 1014.9
20260510094514 57 171 0.0 0.0 0.00 0.00 0.00 87 1015.1
20260510094010 57 171 0.0 0.0 0.00 0.00 0.00 87 1015.1
20260510093506 57 172 0.0 0.0 0.00 0.00 0.00 87 1015.1
20260510093003 57 171 0.0 0.0 0.00 0.00 0.00 86 1015.0
20260510092500 57 172 0.0 0.0 0.00 0.00 0.00 86 1014.8
20260510091959 57 172 0.0 0.0 0.00 0.00 0.00 86 1014.5
20260510091457 57 172 0.0 0.0 0.00 0.00 0.00 86 1014.5
20260510090953 57 172 0.0 0.0 0.00 0.00 0.00 85 1014.8
20260510090450 58 172 0.0 0.0 0.00 0.00 0.00 85 1014.7
20260510085945 58 171 0.0 0.0 0.00 0.00 0.00 85 1014.5
20260510085441 58 171 0.0 0.0 0.00 0.00 0.00 85 1014.5
20260510084936 58 180 0.0 0.0 0.00 0.00 0.00 84 1014.6
20260510084434 58 180 0.0 0.0 0.00 0.00 0.00 84 1014.6
20260510083930 58 180 0.0 0.0 0.00 0.00 0.00 84 1014.4
20260510083427 58 179 0.0 0.0 0.00 0.00 0.00 84 1014.3
20260510082922 58 178 0.0 0.0 0.00 0.00 0.00 83 1014.2
20260510082420 58 172 0.0 0.0 0.00 0.00 0.00 82 1014.1
20260510081919 58 153 0.0 0.0 0.00 0.00 0.00 82 1014.2
20260510081415 58 186 0.0 0.0 0.00 0.00 0.00 82 1014.0
20260510080912 58 184 0.0 0.0 0.00 0.00 0.00 82 1014.3
20260510080411 58 181 0.0 0.0 0.00 0.00 0.00 83 1014.5
20260510075908 58 169 0.0 0.0 0.00 0.00 0.00 83 1014.7
20260510075406 58 184 0.0 0.0 0.00 0.00 0.00 84 1014.7
20260510074902 58 169 0.0 0.0 0.00 0.00 0.00 83 1014.4
20260510074359 58 171 0.0 0.0 0.00 0.00 0.00 84 1014.5
20260510073855 58 171 0.0 0.0 0.00 0.00 0.00 83 1014.4
20260510073351 58 171 0.0 0.0 0.00 0.00 0.00 83 1014.4
20260510072847 58 171 0.0 0.0 0.00 0.00 0.00 82 1014.3
20260510072344 58 171 0.0 0.0 0.00 0.00 0.00 81 1014.3
20260510071840 58 171 0.0 0.0 0.00 0.00 0.00 82 1014.1
20260510071337 59 171 0.0 0.0 0.00 0.00 0.00 81 1014.3
20260510070836 59 176 0.0 0.0 0.00 0.00 0.00 82 1014.2
20260510070332 59 185 0.0 0.0 0.00 0.00 0.00 81 1014.2
20260510065827 59 177 0.0 0.0 0.00 0.00 0.00 78 1014.2
20260510065324 60 176 0.0 0.0 0.00 0.00 0.00 77 1014.3
20260510064821 60 176 0.0 0.0 0.00 0.00 0.00 76 1014.3
20260510064319 60 176 0.0 0.0 0.00 0.00 0.00 77 1014.0
20260510063814 60 176 0.0 0.0 0.00 0.00 0.00 75 1014.1
20260510063311 61 176 0.0 0.0 0.00 0.00 0.00 75 1014.1
20260510062808 61 182 0.0 0.0 0.00 0.00 0.00 74 1014.1
20260510062306 61 167 0.0 0.0 0.00 0.00 0.00 76 1014.3
20260510061759 61 131 2.0 2.0 0.00 0.00 0.00 75 1014.3
20260510061256 61 189 1.0 1.0 0.00 0.00 0.00 78 1014.3
20260510060752 60 169 1.0 2.0 0.00 0.00 0.00 79 1014.3
20260510060249 59 8 2.0 2.0 0.00 0.00 0.00 82 1014.0
20260510055746 59 179 0.0 0.0 0.00 0.00 0.00 82 1013.8
20260510055244 59 180 0.0 0.0 0.00 0.00 0.00 82 1013.8
20260510054744 59 180 0.0 0.0 0.00 0.00 0.00 82 1014.0
20260510054240 59 180 0.0 0.0 0.00 0.00 0.00 82 1013.8
20260510053739 59 180 0.0 0.0 0.00 0.00 0.00 81 1014.0
20260510053236 60 180 0.0 0.0 0.00 0.00 0.00 81 1014.1
20260510052732 60 180 0.0 0.0 0.00 0.00 0.00 81 1014.2
20260510052228 60 180 0.0 0.0 0.00 0.00 0.00 80 1014.1
20260510051724 60 180 0.0 0.0 0.00 0.00 0.00 79 1013.8
20260510051220 60 180 0.0 0.0 0.00 0.00 0.00 80 1014.0
20260510050718 60 180 0.0 0.0 0.00 0.00 0.00 79 1013.7
20260510050215 60 180 0.0 0.0 0.00 0.00 0.00 80 1013.6
20260510045712 60 195 2.0 2.0 0.00 0.00 0.00 79 1013.7
20260510045208 61 185 0.0 0.0 0.00 0.00 0.00 77 1013.6
20260510044704 61 185 0.0 0.0 0.00 0.00 0.00 77 1013.5
20260510044202 61 185 0.0 0.0 0.00 0.00 0.00 77 1013.6
20260510043657 61 185 0.0 0.0 0.00 0.00 0.00 75 1013.5
20260510043155 61 185 0.0 0.0 0.00 0.00 0.00 75 1013.7
20260510042652 60 185 0.0 0.0 0.00 0.00 0.00 76 1013.6
20260510042148 60 185 0.0 0.0 0.00 0.00 0.00 77 1013.7
20260510041645 60 185 0.0 0.0 0.00 0.00 0.00 76 1013.6
20260510041142 60 185 0.0 0.0 0.00 0.00 0.00 76 1013.6
20260510040639 61 185 0.0 0.0 0.00 0.00 0.00 75 1013.5
20260510040136 61 185 0.0 0.0 0.00 0.01 0.01 73 1013.3
20260510035632 61 185 0.0 0.0 0.00 0.01 0.01 73 1013.3
20260510035127 61 185 0.0 0.0 0.00 0.01 0.01 72 1013.1
20260510034624 61 185 0.0 0.0 0.00 0.01 0.01 71 1013.2
20260510034121 62 185 0.0 0.0 0.00 0.01 0.01 71 1013.3
20260510033617 62 185 0.0 0.0 0.00 0.01 0.01 71 1013.2
20260510033115 62 185 0.0 0.0 0.00 0.01 0.01 71 1013.1
20260510032611 62 186 0.0 0.0 0.00 0.01 0.01 71 1013.2
20260510032107 62 184 0.0 0.0 0.00 0.01 0.01 67 1013.2
20260510031602 62 184 0.0 0.0 0.00 0.01 0.01 67 1013.0
20260510031058 63 184 0.0 0.0 0.00 0.01 0.01 67 1013.1
20260510030553 63 184 0.0 0.0 0.00 0.01 0.01 68 1013.0
20260510030051 63 184 0.0 0.0 0.00 0.01 0.01 67 1013.0
20260510025548 64 184 0.0 0.0 0.00 0.01 0.01 66 1013.0
20260510025046 64 184 0.0 0.0 0.00 0.01 0.01 65 1012.8
20260510024542 64 184 0.0 0.0 0.00 0.01 0.01 63 1012.5
20260510024038 65 184 0.0 0.0 0.00 0.01 0.01 64 1012.4
20260510023535 64 184 0.0 0.0 0.00 0.01 0.01 62 1012.4
20260510023032 64 184 0.0 0.0 0.00 0.01 0.01 61 1012.2
20260510022531 65 184 0.0 0.0 0.00 0.01 0.01 61 1012.1
20260510022026 65 184 0.0 0.0 0.00 0.01 0.01 60 1012.1
20260510021523 65 184 0.0 0.0 0.00 0.01 0.01 60 1011.9
20260510021021 66 184 0.0 0.0 0.00 0.01 0.01 59 1011.9
20260510020520 66 184 0.0 0.0 0.00 0.01 0.01 59 1011.7
20260510020016 66 184 0.0 0.0 0.00 0.01 0.01 58 1011.9
20260510015512 67 184 0.0 0.0 0.00 0.01 0.01 57 1011.7
20260510015008 67 184 0.0 0.0 0.00 0.01 0.01 58 1011.4
20260510014505 67 184 0.0 0.0 0.00 0.01 0.01 55 1011.3
20260510014002 68 184 0.0 0.0 0.00 0.01 0.01 54 1011.3
20260510013456 68 184 0.0 0.0 0.00 0.01 0.01 53 1011.0
20260510012952 68 184 0.0 0.0 0.00 0.01 0.01 53 1011.0
20260510012447 69 184 0.0 0.0 0.00 0.01 0.01 53 1011.0
20260510011942 69 184 0.0 0.0 0.00 0.01 0.01 52 1011.2
20260510011437 70 184 0.0 0.0 0.00 0.01 0.01 51 1010.9
20260510010933 71 184 0.0 0.0 0.00 0.01 0.01 51 1010.9
20260510010431 71 184 0.0 0.0 0.00 0.01 0.01 51 1011.0
20260510005928 72 184 0.0 0.0 0.00 0.01 0.01 50 1010.9
20260510005423 72 184 0.0 0.0 0.00 0.01 0.01 49 1010.9
20260510004921 73 184 0.0 0.0 0.00 0.01 0.01 49 1010.9
20260510004419 73 184 0.0 0.0 0.00 0.01 0.01 47 1010.7
20260510003916 74 184 0.0 0.0 0.00 0.01 0.01 47 1010.5
20260510003413 75 184 0.0 0.0 0.00 0.01 0.01 45 1010.6
20260510002912 75 184 0.0 0.0 0.00 0.01 0.01 43 1010.6
20260510002409 76 184 0.0 0.0 0.00 0.01 0.01 43 1010.5
20260510001906 77 184 0.0 0.0 0.00 0.01 0.01 41 1010.5
20260510001404 77 184 0.0 0.0 0.00 0.01 0.01 40 1010.5
20260510000900 77 185 0.0 0.0 0.00 0.01 0.01 37 1010.5
20260510000357 77 182 0.0 0.0 0.00 0.01 0.01 38 1010.6
20260509235853 78 172 0.0 0.0 0.00 0.01 0.01 37 1010.4
20260509235350 78 182 0.0 0.0 0.00 0.01 0.01 36 1010.6
20260509234846 78 166 0.0 0.0 0.00 0.01 0.01 37 1010.5
20260509234343 78 182 0.0 0.0 0.00 0.01 0.01 36 1010.7
20260509233842 78 180 0.0 0.0 0.00 0.01 0.01 36 1010.7
20260509233339 79 185 0.0 0.0 0.00 0.01 0.01 34 1010.8
20260509232834 79 179 0.0 0.0 0.00 0.01 0.01 33 1010.6
20260509232333 79 174 0.0 0.0 0.00 0.01 0.01 36 1010.5
20260509231828 80 186 0.0 1.0 0.00 0.01 0.01 34 1010.6
20260509231325 80 200 0.0 0.0 0.00 0.01 0.01 35 1010.6
20260509230823 80 193 1.0 1.0 0.00 0.01 0.01 34 1010.7
20260509230320 81 190 0.0 0.0 0.00 0.01 0.01 34 1010.6
20260509225815 80 182 0.0 0.0 0.00 0.01 0.01 35 1010.6
20260509225312 80 174 0.0 0.0 0.00 0.01 0.01 36 1010.6
20260509224808 80 185 0.0 0.0 0.00 0.01 0.01 35 1010.6
20260509224304 80 179 0.0 0.0 0.00 0.01 0.01 34 1010.5
20260509223801 80 170 0.0 0.0 0.00 0.01 0.01 33 1010.5
20260509223258 80 164 1.0 1.0 0.00 0.01 0.01 37 1010.5
20260509222755 80 203 4.0 6.0 0.00 0.01 0.01 37 1010.4
20260509222250 80 170 0.0 0.0 0.00 0.01 0.01 35 1010.7
20260509221746 80 190 0.0 0.0 0.00 0.01 0.01 35 1010.6
20260509221243 80 169 0.0 0.0 0.00 0.01 0.01 36 1010.7
20260509220739 80 183 0.0 0.0 0.00 0.01 0.01 36 1010.6
20260509220235 81 186 0.0 0.0 0.00 0.01 0.01 36 1010.7
20260509215731 81 135 0.0 0.0 0.00 0.01 0.01 32 1010.6
20260509215227 81 186 0.0 0.0 0.00 0.01 0.01 32 1010.7
20260509214725 81 171 0.0 0.0 0.00 0.01 0.01 34 1010.7
20260509214222 82 206 1.0 3.0 0.00 0.01 0.01 35 1010.7
20260509213719 81 176 0.0 1.0 0.00 0.01 0.01 36 1010.6
20260509213214 81 167 2.0 2.0 0.00 0.01 0.01 34 1010.5
20260509212712 81 175 0.0 1.0 0.00 0.01 0.01 33 1010.7
20260509212209 80 183 3.0 3.0 0.00 0.01 0.01 33 1010.7
20260509211705 80 177 0.0 0.0 0.00 0.01 0.01 31 1010.8
20260509211201 81 185 0.0 0.0 0.00 0.01 0.01 32 1010.8
20260509210658 82 147 0.0 0.0 0.00 0.01 0.01 36 1010.7
20260509210155 82 138 3.0 3.0 0.00 0.01 0.01 32 1010.9
20260509205650 82 190 0.0 0.0 0.00 0.01 0.01 31 1010.8
20260509205150 82 205 1.0 1.0 0.00 0.01 0.01 29 1011.0
20260509204646 83 197 0.0 0.0 0.00 0.01 0.01 35 1011.0
20260509204142 83 202 1.0 2.0 0.00 0.01 0.01 32 1010.9
20260509203639 83 182 0.0 1.0 0.00 0.01 0.01 34 1010.9
20260509203137 83 195 0.0 0.0 0.00 0.01 0.01 35 1010.9
20260509202637 83 186 0.0 0.0 0.00 0.01 0.01 38 1011.0
20260509202133 84 299 0.0 1.0 0.00 0.01 0.01 28 1011.3
20260509201627 82 154 0.0 0.0 0.00 0.01 0.01 30 1011.3
20260509201126 83 208 2.0 2.0 0.00 0.01 0.01 32 1011.3
20260509200621 83 141 1.0 1.0 0.00 0.01 0.01 34 1011.5
20260509200117 83 179 0.0 0.0 0.00 0.01 0.01 40 1011.4
20260509195613 83 198 2.0 3.0 0.00 0.01 0.01 29 1011.5
20260509195107 83 185 0.0 0.0 0.00 0.01 0.01 38 1011.5
20260509194607 82 200 0.0 0.0 0.00 0.01 0.01 31 1011.6
20260509194105 82 182 0.0 1.0 0.00 0.01 0.01 33 1011.7
20260509193600 83 235 0.0 0.0 0.00 0.01 0.01 32 1011.7
20260509193056 83 190 0.0 1.0 0.00 0.01 0.01 34 1011.7
20260509192553 83 162 0.0 1.0 0.00 0.01 0.01 32 1011.7
20260509192048 83 169 0.0 0.0 0.00 0.01 0.01 31 1011.7
20260509191548 83 201 0.0 1.0 0.00 0.01 0.01 35 1011.7
20260509191045 83 194 0.0 0.0 0.00 0.01 0.01 38 1011.8
20260509190541 83 173 1.0 2.0 0.00 0.01 0.01 37 1011.7
20260509190040 82 206 3.0 4.0 0.00 0.01 0.01 32 1011.7
20260509185537 82 191 0.0 0.0 0.00 0.01 0.01 34 1011.9
20260509185033 82 187 0.0 1.0 0.00 0.01 0.01 36 1011.8
20260509184531 82 354 0.0 1.0 0.00 0.01 0.01 38 1011.8
20260509184027 82 206 2.0 4.0 0.00 0.01 0.01 34 1011.6
20260509183522 81 92 0.0 0.0 0.00 0.01 0.01 36 1011.8
20260509183019 82 161 1.0 1.0 0.00 0.01 0.01 35 1011.7
20260509182515 82 195 2.0 2.0 0.00 0.01 0.01 35 1011.9
20260509182012 82 191 0.0 1.0 0.00 0.01 0.01 34 1011.8
20260509181511 82 199 0.0 0.0 0.00 0.01 0.01 36 1011.8
20260509181008 81 193 0.0 0.0 0.00 0.01 0.01 41 1011.7
20260509180503 81 175 0.0 0.0 0.00 0.01 0.01 34 1011.7
20260509180001 80 173 0.0 0.0 0.00 0.01 0.01 40 1011.9
20260509175456 80 185 1.0 1.0 0.00 0.01 0.01 37 1011.9
20260509174953 80 204 2.0 3.0 0.00 0.01 0.01 33 1011.8
20260509174449 81 183 0.0 1.0 0.00 0.01 0.01 38 1012.0
20260509173944 80 197 2.0 3.0 0.00 0.01 0.01 34 1011.8
20260509173439 79 187 0.0 0.0 0.00 0.01 0.01 37 1012.0
20260509172936 79 189 0.0 0.0 0.00 0.01 0.01 46 1012.0
20260509172433 80 181 0.0 0.0 0.00 0.01 0.01 40 1012.0
20260509171928 79 184 0.0 0.0 0.00 0.01 0.01 43 1012.2
20260509171424 78 186 0.0 0.0 0.00 0.01 0.01 44 1012.3
20260509170921 78 191 2.0 3.0 0.00 0.01 0.01 39 1012.1
20260509170416 79 178 0.0 0.0 0.00 0.01 0.01 41 1012.2
20260509165913 79 188 0.0 0.0 0.00 0.01 0.01 40 1012.2
20260509165412 78 181 0.0 0.0 0.00 0.01 0.01 44 1012.2
20260509164908 78 216 0.0 0.0 0.00 0.01 0.01 42 1012.1
20260509164405 78 207 2.0 3.0 0.00 0.01 0.01 44 1012.1
20260509163901 78 214 0.0 0.0 0.00 0.01 0.01 46 1012.2
20260509163358 78 33 0.0 1.0 0.00 0.01 0.01 44 1012.0
20260509162857 78 174 0.0 0.0 0.00 0.01 0.01 45 1012.1
20260509162355 77 185 0.0 0.0 0.00 0.01 0.01 47 1012.1
20260509161852 78 152 1.0 2.0 0.00 0.01 0.01 46 1012.2
20260509161348 78 204 0.0 1.0 0.00 0.01 0.01 46 1012.1
20260509160844 76 138 0.0 0.0 0.00 0.01 0.01 50 1012.1
20260509160340 76 192 1.0 1.0 0.00 0.01 0.01 48 1012.1
20260509155835 76 194 0.0 0.0 0.00 0.01 0.01 47 1012.1
20260509155331 75 215 0.0 1.0 0.00 0.01 0.01 52 1012.3
20260509154828 76 193 4.0 4.0 0.00 0.01 0.01 49 1012.0
20260509154324 75 196 2.0 2.0 0.00 0.01 0.01 51 1012.0
20260509153822 75 166 0.0 1.0 0.00 0.01 0.01 54 1011.9
20260509153318 74 204 2.0 2.0 0.00 0.01 0.01 54 1012.0
20260509152815 73 185 0.0 0.0 0.00 0.01 0.01 59 1012.1
20260509152311 72 164 0.0 0.0 0.00 0.01 0.01 58 1012.1
20260509151809 71 176 0.0 0.0 0.00 0.01 0.01 62 1012.1
20260509151304 71 188 1.0 1.0 0.00 0.01 0.01 60 1012.2
20260509150803 70 176 0.0 0.0 0.00 0.01 0.01 65 1012.1
20260509150300 70 180 0.0 0.0 0.00 0.01 0.01 66 1012.0
20260509145758 69 196 0.0 0.0 0.00 0.01 0.01 69 1012.1
20260509145257 69 193 0.0 0.0 0.00 0.01 0.01 71 1012.1
20260509144754 68 211 2.0 3.0 0.00 0.01 0.01 71 1012.1
20260509144251 68 193 0.0 0.0 0.00 0.01 0.01 73 1012.0
20260509143748 68 194 0.0 1.0 0.00 0.01 0.01 74 1012.2
20260509143246 67 177 0.0 0.0 0.00 0.01 0.01 76 1012.0
20260509142741 67 182 0.0 0.0 0.00 0.01 0.01 78 1012.1